Regional Weather Roundup
Issued by NWS

Home | Current Version | Previous Version | Graphics & Text | Print | Product List | Glossary On
Versions: 1 2 3 4 5 6 7 8 9 10 11 12 13 14 15 16 17 18 19 20 21 22 23 24 25 26 27 28 29 30 31 32 33 34 35 36 37 38 39 40 41 42 43 44 45 46 47 48 49 50
000
ASUS43 KLSX 260707
RWRMO

WEATHER SUMMARY FOR MISSOURI
NATIONAL WEATHER SERVICE SPRINGFIELD MO
200 AM CDT MON SEP 26 2016

NOTE: "FAIR" INDICATES FEW OR NO CLOUDS BELOW 12,000 FEET WITH NO
       SIGNIFICANT WEATHER AND/OR OBSTRUCTIONS TO VISIBILITY.
       CURRENT SKY AND/OR WEATHER CONDITIONS ARE NOT AVAILABLE FOR
       CHILLICOTHE AND FARMINGTON.

MOZ001>031-035>038-043-044-053-054-260800-
...NORTHERN AND WESTERN MISSOURI...

CITY           SKY/WX    TMP DP  RH WIND       PRES   REMARKS
KANSAS CTY INT CLEAR     56  53  90 NW7       30.22R
KANSAS C DTWN  CLEAR     60  56  86 W3        30.21R
LEE`S SUMMIT   CLOUDY    58  56  93 NW6       30.22R
ST JOSEPH      CLEAR     51  47  86 N3        30.23R
CHILLICOTHE      N/A     59  53  80 NW5       30.20R
KIRKSVILLE     CLOUDY    58  52  80 W5        30.16S

$$
MOZ066>068-077>081-088>096-101>105-260800-
...SOUTHWEST MISSOURI...

CITY           SKY/WX    TMP DP  RH WIND       PRES   REMARKS
SPRINGFIELD    LGT RAIN  60  57  89 N9        30.20S
JOPLIN         CLOUDY    61  59  93 N3          N/A
BRANSON        LGT RAIN  57  57 100 N7        30.20S

$$
MOZ032>034-039>042-045>050-055>058-069>072-260800-
...CENTRAL MISSOURI...

CITY           SKY/WX    TMP DP  RH WIND       PRES   REMARKS
COLUMBIA       MOCLDY    61  59  93 W6        30.17F
JEFFERSON CITY MOCLDY    62  60  93 CALM      30.16F
ROLLA          LGT RAIN  59  57  93 NW8       30.18R
SEDALIA        PTCLDY    61  57  87 W5        30.19F
WHITEMAN AFB   PTCLDY    61  60  97 NW3       30.18S
OSAGE BEACH    LGT RAIN  59  56  89 CALM      30.19F

$$
MOZ051-052-059>065-260800-
...EAST CENTRAL MISSOURI...

CITY           SKY/WX    TMP DP  RH WIND       PRES   REMARKS
ST LOUIS INTL  CLOUDY    63  55  75 NW15      30.12F
SPIRIT OF STL  CLOUDY    63  56  78 NW12G18   30.12S
ST CHARLES     LGT RAIN  60  58  92 NW13      30.12S

$$
MOZ072>076-082>087-097>100-106>115-260800-
...SOUTH CENTRAL AND SOUTHEAST MISSOURI...

CITY           SKY/WX    TMP DP  RH WIND       PRES   REMARKS
CAPE GIRARDEAU CLOUDY    73  67  81 NW15G22   30.03R
FARMINGTON     CLOUDY    62  58  86 NW8       30.13R
WEST PLAINS    RAIN      61  56  83 N12G22    30.17R

$$



USA.gov is the U.S. government's official web portal to all federal, state and local government web resources and services.